�N����,����,�g�[���i���ԁj���x,�g�[�����x,��g�[���i���ցj���x,����
 2003/12/01, 0:00,17.8,77,14.7,-9.9
 2003/12/01, 0:15,18.2,79.5,14.9,-9.9
 2003/12/01, 0:30,18.2,77,14.9,-9.9
 2003/12/01, 0:45,17.9,76.5,14.9,-9.9
 2003/12/01, 1:00,17.4,78,14.9,-9.9
 2003/12/01, 1:15,17.1,77,14.8,-9.9
 2003/12/01, 1:30,17,77,14.8,-9.9
 2003/12/01, 1:45,16.8,77,14.7,-9.9
 2003/12/01, 2:00,16.7,77,14.7,-9.9
 2003/12/01, 2:15,16.5,77,14.7,-9.9
 2003/12/01, 2:30,16.4,77,14.7,-9.9
 2003/12/01, 2:45,16.4,77,14.6,-9.9
 2003/12/01, 3:00,16.2,77,14.6,-9.9
 2003/12/01, 3:15,16.1,77,14.6,-9.9
 2003/12/01, 3:30,16.1,77,14.5,-9.9
 2003/12/01, 3:45,16.2,76,14.5,-9.9
 2003/12/01, 4:00,16.2,77,14.5,-9.9
 2003/12/01, 4:15,16.1,76.5,14.5,-9.9
 2003/12/01, 4:30,16.1,76,14.5,-9.9
 2003/12/01, 4:45,16,76,14.5,-9.9
 2003/12/01, 5:00,15.9,77,14.4,-9.9
 2003/12/01, 5:15,15.9,76,14.4,-9.9
 2003/12/01, 5:30,15.9,76,14.4,-9.9
 2003/12/01, 5:45,16,76.5,14.4,-9.9
 2003/12/01, 6:00,16.1,77,14.3,-9.9
 2003/12/01, 6:15,16.1,77,14.4,-9.9
 2003/12/01, 6:30,16.1,77,14.3,-9.9
 2003/12/01, 6:45,16.2,78.5,14.3,-9.9
 2003/12/01, 7:00,16.2,80,14.3,-9.9
 2003/12/01, 7:15,15.8,76,14.2,-9.9
 2003/12/01, 7:30,16.2,80,14.2,-9.9
 2003/12/01, 7:45,16.2,79.5,14.5,-9.9
 2003/12/01, 8:00,15.9,79,14.5,-9.9
 2003/12/01, 8:15,15.9,77.5,14.3,-9.9
 2003/12/01, 8:30,15.7,76,14.2,-9.9
 2003/12/01, 8:45,15.6,75,14.1,-9.9
 2003/12/01, 9:00,15.7,75,14.2,-9.9
 2003/12/01, 9:15,15.6,74,14.3,-9.9
 2003/12/01, 9:30,15.7,74,14.2,-9.9
 2003/12/01, 9:45,15.7,74,14.2,-9.9
 2003/12/01,10:00,15.7,74,14.3,-9.9
 2003/12/01,10:15,15.6,73,14.3,-9.9
 2003/12/01,10:30,15.8,73,14.3,-9.9
 2003/12/01,10:45,15.7,73,14.4,-9.9
 2003/12/01,11:00,15.7,73,14.4,-9.9
 2003/12/01,11:15,15.8,73,14.4,-9.9
 2003/12/01,11:30,15.7,73,14.4,-9.9
 2003/12/01,11:45,15.7,72.5,14.4,-9.9
 2003/12/01,12:00,16.1,73,14.4,-9.9
 2003/12/01,12:15,16.1,75,14.4,-9.9
 2003/12/01,12:30,16.2,75,14.5,-9.9
 2003/12/01,12:45,16.2,74,14.5,-9.9
 2003/12/01,13:00,16.1,73,14.6,-9.9
 2003/12/01,13:15,16.2,73,14.5,-9.9
 2003/12/01,13:30,16.2,73,14.5,-9.9
 2003/12/01,13:45,16.1,73,14.6,-9.9
 2003/12/01,14:00,16.2,73,14.6,-9.9
 2003/12/01,14:15,16.1,72.5,14.6,-9.9
 2003/12/01,14:30,16.1,72,14.6,-9.9
 2003/12/01,14:45,16.2,72,14.7,-9.9
 2003/12/01,15:00,16.3,72,14.8,-9.9
 2003/12/01,15:15,16.2,72,14.8,-9.9
 2003/12/01,15:30,16.3,72,14.8,-9.9
 2003/12/01,15:45,16.2,71,14.8,-9.9
 2003/12/01,16:00,16.2,69,14.8,-9.9
 2003/12/01,16:15,16.2,68,14.9,-9.9
 2003/12/01,16:30,16.2,68,14.7,-9.9
 2003/12/01,16:45,16.2,67,14.6,-9.9
 2003/12/01,17:00,16.3,69,14.6,-9.9
 2003/12/01,17:15,16.3,69.5,14.5,-9.9
 2003/12/01,17:30,16.2,70,14.4,-9.9
 2003/12/01,17:45,16.2,70,14.4,-9.9
 2003/12/01,18:00,18,80,14.4,-9.9
 2003/12/01,18:15,17.6,75,14.4,-9.9
 2003/12/01,18:30,17.1,76,14.3,-9.9
 2003/12/01,18:45,16.9,74.5,14.3,-9.9
 2003/12/01,19:00,16.7,74,14.3,-9.9
 2003/12/01,19:15,16.8,73.5,14.1,-9.9
 2003/12/01,19:30,16.7,73,14.1,-9.9
 2003/12/01,19:45,16.5,73,14.1,-9.9
 2003/12/01,20:00,16.5,73,14.1,-9.9
 2003/12/01,20:15,16.5,73,14.1,-9.9
 2003/12/01,20:30,16.4,72,14.1,-9.9
 2003/12/01,20:45,16.4,72.5,14.1,-9.9
 2003/12/01,21:00,16.4,72,14.2,-9.9
 2003/12/01,21:15,16.3,73,14.1,-9.9
 2003/12/01,21:30,16.3,72,14.1,-9.9
 2003/12/01,21:45,16.4,72.5,13.9,-9.9
 2003/12/01,22:00,16.4,72,13.9,-9.9
 2003/12/01,22:15,16.2,72.5,13.9,-9.9
 2003/12/01,22:30,16.3,73,13.9,-9.9
 2003/12/01,22:45,16.2,72,14,-9.9
 2003/12/01,23:00,16.2,72,14,-9.9
 2003/12/01,23:15,16.5,73,13.9,-9.9
 2003/12/01,23:30,16.4,73,13.9,-9.9
 2003/12/01,23:45,16.2,73,13.9,-9.9
 2003/12/02, 0:00,16.2,73,13.9,-9.9
 2003/12/02, 0:15,16.3,73,13.9,-9.9
 2003/12/02, 0:30,16.4,73,13.8,-9.9
 2003/12/02, 0:45,16.4,72,13.9,-9.9
 2003/12/02, 1:00,16.3,72,13.9,-9.9
 2003/12/02, 1:15,16.2,71,13.9,-9.9
 2003/12/02, 1:30,16.1,69,13.9,-9.9
 2003/12/02, 1:45,15.9,69,14,-9.9
 2003/12/02, 2:00,15.7,69,14,-9.9
 2003/12/02, 2:15,15.6,69,14,-9.9
 2003/12/02, 2:30,15.5,69,14,-9.9
 2003/12/02, 2:45,15.4,70,14,-9.9
 2003/12/02, 3:00,15.4,70,14,-9.9
 2003/12/02, 3:15,15.2,70,14,-9.9
 2003/12/02, 3:30,15.2,70,13.9,-9.9
 2003/12/02, 3:45,15.1,70.5,13.9,-9.9
 2003/12/02, 4:00,15,71,13.9,-9.9
 2003/12/02, 4:15,15,71,13.9,-9.9
 2003/12/02, 4:30,14.9,71,13.8,-9.9
 2003/12/02, 4:45,14.9,71,13.7,-9.9
 2003/12/02, 5:00,14.8,71,13.7,-9.9
 2003/12/02, 5:15,14.8,71,13.7,-9.9
 2003/12/02, 5:30,14.7,71,13.7,-9.9
 2003/12/02, 5:45,14.6,71,13.6,-9.9
 2003/12/02, 6:00,14.6,72,13.5,-9.9
 2003/12/02, 6:15,14.6,71.5,13.4,-9.9
 2003/12/02, 6:30,14.5,72,13.4,-9.9
 2003/12/02, 6:45,14.5,72,13.4,-9.9
 2003/12/02, 7:00,14.4,72,13.4,-9.9
 2003/12/02, 7:15,14.4,72,13.4,-9.9
 2003/12/02, 7:30,14.3,72,13.3,-9.9
 2003/12/02, 7:45,14.3,72,13.4,-9.9
 2003/12/02, 8:00,14.4,73,13.5,-9.9
 2003/12/02, 8:15,14.6,71.5,13.8,-9.9
 2003/12/02, 8:30,15,70,14.4,-9.9
 2003/12/02, 8:45,15.2,68,14.6,-9.9
 2003/12/02, 9:00,15.4,67,14.6,-9.9
 2003/12/02, 9:15,15.4,66.5,14.6,-9.9
 2003/12/02, 9:30,15.5,66,14.7,-9.9
 2003/12/02, 9:45,15.4,65,14.6,-9.9
 2003/12/02,10:00,15.5,66,14.7,-9.9
 2003/12/02,10:15,15.4,63.5,14.7,-9.9
 2003/12/02,10:30,15.3,61,14.8,-9.9
 2003/12/02,10:45,15.2,60.5,14.8,-9.9
 2003/12/02,11:00,15.2,58,14.8,-9.9
 2003/12/02,11:15,15.2,57.5,14.8,-9.9
 2003/12/02,11:30,15.2,57,14.8,-9.9
 2003/12/02,11:45,15.2,56.5,14.8,-9.9
 2003/12/02,12:00,15.3,55,14.8,-9.9
 2003/12/02,12:15,15.3,56,14.9,-9.9
 2003/12/02,12:30,15.4,55,14.8,-9.9
 2003/12/02,12:45,15.5,54.5,14.8,-9.9
 2003/12/02,13:00,15.5,54,14.8,-9.9
 2003/12/02,13:15,15.8,55,14.9,-9.9
 2003/12/02,13:30,15.8,54,14.9,-9.9
 2003/12/02,13:45,16.2,54.5,15,-9.9
 2003/12/02,14:00,16.2,55,15,-9.9
 2003/12/02,14:15,16,53.5,14.9,-9.9
 2003/12/02,14:30,15.8,52,14.7,-9.9
 2003/12/02,14:45,15.8,52,14.6,-9.9
 2003/12/02,15:00,15.6,52,14.6,-9.9
 2003/12/02,15:15,15.7,53.5,14.9,-9.9
 2003/12/02,15:30,15.7,55,14.8,-9.9
 2003/12/02,15:45,15.6,53.5,14.6,-9.9
 2003/12/02,16:00,15.5,55,14.6,-9.9
 2003/12/02,16:15,15.4,55,14.4,-9.9
 2003/12/02,16:30,15.4,55,14.5,-9.9
 2003/12/02,16:45,15.2,54,14.4,-9.9
 2003/12/02,17:00,15.2,54,14.5,-9.9
 2003/12/02,17:15,15.8,53.5,14.2,-9.9
 2003/12/02,17:30,16.4,52,14.2,-9.9
 2003/12/02,17:45,17,53,14.1,-9.9
 2003/12/02,18:00,18.1,57,14.1,-9.9
 2003/12/02,18:15,17.2,57,14.1,-9.9
 2003/12/02,18:30,17.7,56,14,-9.9
 2003/12/02,18:45,18.5,60.5,13.9,-9.9
 2003/12/02,19:00,18.5,59,13.9,-9.9
 2003/12/02,19:15,18.4,59,13.8,-9.9
 2003/12/02,19:30,18.1,58,13.9,-9.9
 2003/12/02,19:45,17.8,60.5,13.9,-9.9
 2003/12/02,20:00,17.3,64,13.8,-9.9
 2003/12/02,20:15,16.8,61,13.6,-9.9
 2003/12/02,20:30,16.4,61,13.5,-9.9
 2003/12/02,20:45,16.3,62.5,13.5,-9.9
 2003/12/02,21:00,16.3,64,13.5,-9.9
 2003/12/02,21:15,16.2,64.5,13.4,-9.9
 2003/12/02,21:30,16.4,64,13.4,-9.9
 2003/12/02,21:45,16.4,64,13.4,-9.9
 2003/12/02,22:00,16.7,67,13.4,-9.9
 2003/12/02,22:15,16.5,66.5,13.4,-9.9
 2003/12/02,22:30,16.4,66,13.4,-9.9
 2003/12/02,22:45,16.4,66,13.4,-9.9
 2003/12/02,23:00,16.4,66,13.4,-9.9
 2003/12/02,23:15,16.4,66.5,13.4,-9.9
 2003/12/02,23:30,17.3,69,13.4,-9.9
 2003/12/02,23:45,17,70.5,13.3,-9.9
 2003/12/03, 0:00,16.8,67,13.3,-9.9
 2003/12/03, 0:15,16.6,66,13.2,-9.9
 2003/12/03, 0:30,16.2,67,13.1,-9.9
 2003/12/03, 0:45,16.2,67,13.1,-9.9
 2003/12/03, 1:00,16,67,12.9,-9.9
 2003/12/03, 1:15,15.8,65,12.9,-9.9
 2003/12/03, 1:30,15.4,63,12.9,-9.9
 2003/12/03, 1:45,15.4,65,12.8,-9.9
 2003/12/03, 2:00,15.2,66,12.8,-9.9
 2003/12/03, 2:15,15.1,66,12.6,-9.9
 2003/12/03, 2:30,14.9,66,12.6,-9.9
 2003/12/03, 2:45,14.8,66,12.6,-9.9
 2003/12/03, 3:00,14.7,66,12.6,-9.9
 2003/12/03, 3:15,14.6,66,12.6,-9.9
 2003/12/03, 3:30,14.6,66,12.6,-9.9
 2003/12/03, 3:45,14.4,66,12.5,-9.9
 2003/12/03, 4:00,14.3,67,12.5,-9.9
 2003/12/03, 4:15,14.4,67,12.5,-9.9
 2003/12/03, 4:30,14.2,67,12.4,-9.9
 2003/12/03, 4:45,14.2,67,12.4,-9.9
 2003/12/03, 5:00,14.1,68,12.3,-9.9
 2003/12/03, 5:15,14.1,67.5,12.3,-9.9
 2003/12/03, 5:30,14.1,68,12.2,-9.9
 2003/12/03, 5:45,14.1,68,12.2,-9.9
 2003/12/03, 6:00,13.9,68,12.1,-9.9
 2003/12/03, 6:15,13.9,68,12.1,-9.9
 2003/12/03, 6:30,13.8,68,12,-9.9
 2003/12/03, 6:45,14.1,71.5,12,-9.9
 2003/12/03, 7:00,14.1,72,11.9,-9.9
 2003/12/03, 7:15,13.8,70.5,11.8,-9.9
 2003/12/03, 7:30,14.5,73,11.8,-9.9
 2003/12/03, 7:45,14.4,73.5,11.9,-9.9
 2003/12/03, 8:00,14.1,71,12.3,-9.9
 2003/12/03, 8:15,13.8,69,12.5,-9.9
 2003/12/03, 8:30,13.7,64,12.9,-9.9
 2003/12/03, 8:45,13.8,62.5,13,-9.9
 2003/12/03, 9:00,14,61,13.1,-9.9
 2003/12/03, 9:15,14.1,62,13.2,-9.9
 2003/12/03, 9:30,14.5,63,13.4,-9.9
 2003/12/03, 9:45,14.4,64.5,13.4,-9.9
 2003/12/03,10:00,14.4,65,13.5,-9.9
 2003/12/03,10:15,14.6,66.5,13.6,-9.9
 2003/12/03,10:30,15.2,67,13.6,-9.9
 2003/12/03,10:45,15.6,66.5,13.6,-9.9
 2003/12/03,11:00,15.8,66,13.6,-9.9
 2003/12/03,11:15,15.9,66,13.6,-9.9
 2003/12/03,11:30,16,65,13.6,-9.9
 2003/12/03,11:45,16.3,64.5,13.8,-9.9
 2003/12/03,12:00,16.4,65,13.7,-9.9
 2003/12/03,12:15,16.4,64,13.7,-9.9
 2003/12/03,12:30,16.9,63,13.8,-9.9
 2003/12/03,12:45,17.2,62,13.9,-9.9
 2003/12/03,13:00,17.5,60,14,-9.9
 2003/12/03,13:15,17.9,60,14,-9.9
 2003/12/03,13:30,18.2,59,14,-9.9
 2003/12/03,13:45,18.3,58,14.1,-9.9
 2003/12/03,14:00,18.2,58,14.4,-9.9
 2003/12/03,14:15,18.1,61,14.2,-9.9
 2003/12/03,14:30,18.1,62,14.2,-9.9
 2003/12/03,14:45,18.4,60.5,14.3,-9.9
 2003/12/03,15:00,18.4,59,14.3,-9.9
 2003/12/03,15:15,18.6,57.5,14.2,-9.9
 2003/12/03,15:30,18.5,57,14.2,-9.9
 2003/12/03,15:45,19.2,57,14.2,-9.9
 2003/12/03,16:00,19.2,57,14.2,-9.9
 2003/12/03,16:15,19.2,57.5,14.2,-9.9
 2003/12/03,16:30,19.1,57,14.1,-9.9
 2003/12/03,16:45,19,56.5,14.1,-9.9
 2003/12/03,17:00,19,56,14,-9.9
 2003/12/03,17:15,18.2,58.5,14,-9.9
 2003/12/03,17:30,17.9,60,14,-9.9
 2003/12/03,17:45,18,59.5,13.8,-9.9
 2003/12/03,18:00,18.4,59,13.7,-9.9
 2003/12/03,18:15,18.4,58.5,13.6,-9.9
 2003/12/03,18:30,17.6,60,13.6,-9.9
 2003/12/03,18:45,16.9,60.5,13.4,-9.9
 2003/12/03,19:00,16.6,60,13.5,-9.9
 2003/12/03,19:15,17.9,67.5,13.2,-9.9
 2003/12/03,19:30,18.3,64,13.1,-9.9
 2003/12/03,19:45,18.4,61.5,13.1,-9.9
 2003/12/03,20:00,18.5,61,12.9,-9.9
 2003/12/03,20:15,18.7,59.5,12.9,-9.9
 2003/12/03,20:30,18.4,59,12.8,-9.9
 2003/12/03,20:45,17.9,61,12.7,-9.9
 2003/12/03,21:00,17.4,64,12.6,-9.9
 2003/12/03,21:15,17,63,12.6,-9.9
 2003/12/03,21:30,16.6,64,12.5,-9.9
 2003/12/03,21:45,16.7,65,12.4,-9.9
 2003/12/03,22:00,16.6,65,12.3,-9.9
 2003/12/03,22:15,16.4,65,12.2,-9.9
 2003/12/03,22:30,16.3,65,12.1,-9.9
 2003/12/03,22:45,16.5,65,12.1,-9.9
 2003/12/03,23:00,17.1,69,12,-9.9
 2003/12/03,23:15,16.8,71,11.9,-9.9
 2003/12/03,23:30,16.6,71,11.9,-9.9
 2003/12/03,23:45,16.3,69,11.8,-9.9
 2003/12/04, 0:00,16.4,70,11.7,-9.9
 2003/12/04, 0:15,16.4,71,11.6,-9.9
 2003/12/04, 0:30,16.2,70,11.6,-9.9
 2003/12/04, 0:45,15.4,67.5,11.8,-9.9
 2003/12/04, 1:00,15,67,11.7,-9.9
 2003/12/04, 1:15,14.9,67,11.6,-9.9
 2003/12/04, 1:30,14.8,67,11.4,-9.9
 2003/12/04, 1:45,14.6,68,11.4,-9.9
 2003/12/04, 2:00,14.5,68,11.2,-9.9
 2003/12/04, 2:15,14.4,68,11.1,-9.9
 2003/12/04, 2:30,14.1,68,11,-9.9
 2003/12/04, 2:45,14.1,68,11,-9.9
 2003/12/04, 3:00,13.8,68,10.9,-9.9
 2003/12/04, 3:15,13.6,69,10.9,-9.9
 2003/12/04, 3:30,13.6,69,10.9,-9.9
 2003/12/04, 3:45,13.4,69,10.7,-9.9
 2003/12/04, 4:00,13.3,69,10.7,-9.9
 2003/12/04, 4:15,13.2,69,10.6,-9.9
 2003/12/04, 4:30,13.1,69,10.6,-9.9
 2003/12/04, 4:45,13.1,69,10.5,-9.9
 2003/12/04, 5:00,12.9,69,10.4,-9.9
 2003/12/04, 5:15,12.9,69,10.5,-9.9
 2003/12/04, 5:30,12.7,69,10.4,-9.9
 2003/12/04, 5:45,12.6,70,10.4,-9.9
 2003/12/04, 6:00,12.5,70,10.3,-9.9
 2003/12/04, 6:15,12.6,70,10.3,-9.9
 2003/12/04, 6:30,12.5,71,10.3,-9.9
 2003/12/04, 6:45,12.6,72.5,10.1,-9.9
 2003/12/04, 7:00,13.1,76,10.2,-9.9
 2003/12/04, 7:15,12.9,75,10.4,-9.9
 2003/12/04, 7:30,12.5,72,10.4,-9.9
 2003/12/04, 7:45,12.6,72.5,10.4,-9.9
 2003/12/04, 8:00,12.8,73,10.5,-9.9
 2003/12/04, 8:15,12.9,73,10.8,-9.9
 2003/12/04, 8:30,13.2,72,10.9,-9.9
 2003/12/04, 8:45,13.8,73.5,11.2,-9.9
 2003/12/04, 9:00,13.8,73,11.5,-9.9
 2003/12/04, 9:15,14.5,70,11.6,-9.9
 2003/12/04, 9:30,15,67,12,-9.9
 2003/12/04, 9:45,15.1,64.5,12,-9.9
 2003/12/04,10:00,15.7,64,11.8,-9.9
 2003/12/04,10:15,16.2,68.5,11.9,-9.9
 2003/12/04,10:30,16.4,70,11.9,-9.9
 2003/12/04,10:45,16.5,69.5,11.8,-9.9
 2003/12/04,11:00,16.5,68,11.9,-9.9
 2003/12/04,11:15,16.5,68.5,11.9,-9.9
 2003/12/04,11:30,16.6,68,12.1,-9.9
 2003/12/04,11:45,16.8,66.5,12.2,-9.9
 2003/12/04,12:00,16.9,64,12.3,-9.9
 2003/12/04,12:15,17.1,61.5,12.4,-9.9
 2003/12/04,12:30,17.4,61,12.5,-9.9
 2003/12/04,12:45,17.2,62.5,12.4,-9.9
 2003/12/04,13:00,17.1,63,12.5,-9.9
 2003/12/04,13:15,17.5,63,12.6,-9.9
 2003/12/04,13:30,17.6,63,12.6,-9.9
 2003/12/04,13:45,18,62.5,12.6,-9.9
 2003/12/04,14:00,18.3,62,12.7,-9.9
 2003/12/04,14:15,18.8,62,12.8,-9.9
 2003/12/04,14:30,19.2,62,12.9,-9.9
 2003/12/04,14:45,19.3,60,12.8,-9.9
 2003/12/04,15:00,19.2,60,12.9,-9.9
 2003/12/04,15:15,19,60,12.9,-9.9
 2003/12/04,15:30,19.7,58,12.9,-9.9
 2003/12/04,15:45,19.9,57,12.9,-9.9
 2003/12/04,16:00,19.8,57,12.9,-9.9
 2003/12/04,16:15,19.5,58,12.9,-9.9
 2003/12/04,16:30,19.4,58,12.9,-9.9
 2003/12/04,16:45,19.3,58,12.8,-9.9
 2003/12/04,17:00,19,56,12.9,-9.9
 2003/12/04,17:15,19.1,57.5,12.8,-9.9
 2003/12/04,17:30,19.2,58,12.6,-9.9
 2003/12/04,17:45,19.2,58,12.5,-9.9
 2003/12/04,18:00,19.2,59,12.5,-9.9
 2003/12/04,18:15,19.2,61.5,12.4,-9.9
 2003/12/04,18:30,19.7,66,12.4,-9.9
 2003/12/04,18:45,19.1,64,12.3,-9.9
 2003/12/04,19:00,19,65,12.2,-9.9
 2003/12/04,19:15,19,64,12.1,-9.9
 2003/12/04,19:30,18.8,63,12,-9.9
 2003/12/04,19:45,18.7,62,11.9,-9.9
 2003/12/04,20:00,18.7,62,11.8,-9.9
 2003/12/04,20:15,18.6,62,11.8,-9.9
 2003/12/04,20:30,18.6,61,11.6,-9.9
 2003/12/04,20:45,18.5,62,11.6,-9.9
 2003/12/04,21:00,18.4,62,11.5,-9.9
 2003/12/04,21:15,18.4,62.5,11.4,-9.9
 2003/12/04,21:30,18.5,62,11.4,-9.9
 2003/12/04,21:45,17.8,63.5,11.4,-9.9
 2003/12/04,22:00,17.1,65,11.2,-9.9
 2003/12/04,22:15,16.8,66.5,11.2,-9.9
 2003/12/04,22:30,16.4,67,11.1,-9.9
 2003/12/04,22:45,16.4,67,11.1,-9.9
 2003/12/04,23:00,16.1,68,10.9,-9.9
 2003/12/04,23:15,15.9,68,10.9,-9.9
 2003/12/04,23:30,15.7,68,10.8,-9.9
 2003/12/04,23:45,15.5,68,10.7,-9.9
 2003/12/05, 0:00,15.3,69,10.5,-9.9
 2003/12/05, 0:15,15.2,69,10.5,-9.9
 2003/12/05, 0:30,15.1,69,10.4,-9.9
 2003/12/05, 0:45,15,68,10.3,-9.9
 2003/12/05, 1:00,14.9,67,10.3,-9.9
 2003/12/05, 1:15,14.8,68,10.1,-9.9
 2003/12/05, 1:30,14.4,63,10.2,-9.9
 2003/12/05, 1:45,13.9,64.5,10.3,-9.9
 2003/12/05, 2:00,13.5,65,10.3,-9.9
 2003/12/05, 2:15,13.2,65,10.2,-9.9
 2003/12/05, 2:30,13,66,10.2,-9.9
 2003/12/05, 2:45,12.9,66,10.1,-9.9
 2003/12/05, 3:00,12.6,66,10.1,-9.9
 2003/12/05, 3:15,12.4,66,10.1,-9.9
 2003/12/05, 3:30,12.4,67,9.9,-9.9
 2003/12/05, 3:45,12.2,67,9.8,-9.9
 2003/12/05, 4:00,12.1,67,9.8,-9.9
 2003/12/05, 4:15,12.1,67,9.6,-9.9
 2003/12/05, 4:30,12,67,9.6,-9.9
 2003/12/05, 4:45,11.7,67,9.5,-9.9
 2003/12/05, 5:00,11.6,67,9.5,-9.9
 2003/12/05, 5:15,11.5,67.5,9.4,-9.9
 2003/12/05, 5:30,11.7,67,9.3,-9.9
 2003/12/05, 5:45,11.6,68,9.2,-9.9
 2003/12/05, 6:00,11.5,68,9,-9.9
 2003/12/05, 6:15,11.4,68,9,-9.9
 2003/12/05, 6:30,11.4,69,9,-9.9
 2003/12/05, 6:45,11.3,69,8.9,-9.9
 2003/12/05, 7:00,11.2,69,8.8,-9.9
 2003/12/05, 7:15,11.1,69,8.8,-9.9
 2003/12/05, 7:30,11.1,69,8.8,-9.9
 2003/12/05, 7:45,11.1,70,8.9,-9.9
 2003/12/05, 8:00,11.1,70,8.9,-9.9
 2003/12/05, 8:15,11.1,70,9.1,-9.9
 2003/12/05, 8:30,11.1,71,9.3,-9.9
 2003/12/05, 8:45,11.6,71,9.8,-9.9
 2003/12/05, 9:00,12,70,10.1,-9.9
 2003/12/05, 9:15,11.9,71,10,-9.9
 2003/12/05, 9:30,11.7,71,9.9,-9.9
 2003/12/05, 9:45,11.7,71,10.2,-9.9
 2003/12/05,10:00,11.7,71,10.4,-9.9
 2003/12/05,10:15,11.7,71,10.6,-9.9
 2003/12/05,10:30,12,73,10.6,-9.9
 2003/12/05,10:45,12.6,77,10.7,-9.9
 2003/12/05,11:00,12.8,67,10.8,-9.9
 2003/12/05,11:15,13.2,64,10.9,-9.9
 2003/12/05,11:30,13.3,64,11.2,-9.9
 2003/12/05,11:45,13.7,63.5,11.2,-9.9
 2003/12/05,12:00,14.2,61,11.2,-9.9
 2003/12/05,12:15,14.5,59.5,11.2,-9.9
 2003/12/05,12:30,15.3,57,11.4,-9.9
 2003/12/05,12:45,15.5,56,11.4,-9.9
 2003/12/05,13:00,15.2,56,11.6,-9.9
 2003/12/05,13:15,16,55.5,12,-9.9
 2003/12/05,13:30,16.4,54,12.1,-9.9
 2003/12/05,13:45,17,53.5,11.9,-9.9
 2003/12/05,14:00,18,53,11.8,-9.9
 2003/12/05,14:15,18.4,54,11.8,-9.9
 2003/12/05,14:30,18.7,55,11.9,-9.9
 2003/12/05,14:45,19.1,54,12,-9.9
 2003/12/05,15:00,19.3,54,12,-9.9
 2003/12/05,15:15,20,53,12.1,-9.9
 2003/12/05,15:30,20.3,53,12.1,-9.9
 2003/12/05,15:45,20,54,12.2,-9.9
 2003/12/05,16:00,19.8,54,12.2,-9.9
 2003/12/05,16:15,19,56,12.1,-9.9
 2003/12/05,16:30,18.2,58,12.4,-9.9
 2003/12/05,16:45,17.8,58.5,12.1,-9.9
 2003/12/05,17:00,17.9,57,12.2,-9.9
 2003/12/05,17:15,18.1,56,12.2,-9.9
 2003/12/05,17:30,18.2,56,12.2,-9.9
 2003/12/05,17:45,18.6,57.5,12.2,-9.9
 2003/12/05,18:00,18.9,60,12.1,-9.9
 2003/12/05,18:15,18,57.5,12.1,-9.9
 2003/12/05,18:30,17.1,56,12.1,-9.9
 2003/12/05,18:45,17,55,12.1,-9.9
 2003/12/05,19:00,18,55,12,-9.9
 2003/12/05,19:15,18.2,58,11.8,-9.9
 2003/12/05,19:30,18.1,59,11.8,-9.9
 2003/12/05,19:45,17.9,59,11.8,-9.9
 2003/12/05,20:00,18.1,59,11.8,-9.9
 2003/12/05,20:15,18.1,60,11.8,-9.9
 2003/12/05,20:30,18.1,60,11.8,-9.9
 2003/12/05,20:45,18.2,61,11.8,-9.9
 2003/12/05,21:00,18.2,62,11.7,-9.9
 2003/12/05,21:15,17.8,63.5,11.7,-9.9
 2003/12/05,21:30,17.2,66,11.6,-9.9
 2003/12/05,21:45,16.8,67,11.7,-9.9
 2003/12/05,22:00,16.4,68,11.7,-9.9
 2003/12/05,22:15,16.5,69,11.6,-9.9
 2003/12/05,22:30,16.4,69,11.6,-9.9
 2003/12/05,22:45,16.3,69,11.6,-9.9
 2003/12/05,23:00,16.2,69,11.6,-9.9
 2003/12/05,23:15,16.4,70.5,11.6,-9.9
 2003/12/05,23:30,16.1,71,11.6,-9.9
 2003/12/05,23:45,15.9,70,11.6,-9.9
 2003/12/06, 0:00,15.7,70,11.5,-9.9
 2003/12/06, 0:15,15.6,71,11.6,-9.9
 2003/12/06, 0:30,15.6,70,11.5,-9.9
 2003/12/06, 0:45,15.5,70,11.5,-9.9
 2003/12/06, 1:00,15.5,70,11.5,-9.9
 2003/12/06, 1:15,15.3,68.5,11.6,-9.9
 2003/12/06, 1:30,14.8,67,11.8,-9.9
 2003/12/06, 1:45,14.6,67,11.9,-9.9
 2003/12/06, 2:00,14.4,67,11.8,-9.9
 2003/12/06, 2:15,14.2,67,11.8,-9.9
 2003/12/06, 2:30,14.1,68,12,-9.9
 2003/12/06, 2:45,14.1,68,11.8,-9.9
 2003/12/06, 3:00,14.3,68,11.6,-9.9
 2003/12/06, 3:15,14.4,68,11.6,-9.9
 2003/12/06, 3:30,14.4,68,11.6,-9.9
 2003/12/06, 3:45,14.2,69,11.6,-9.9
 2003/12/06, 4:00,14.2,69,11.5,-9.9
 2003/12/06, 4:15,14.1,69,11.5,-9.9
 2003/12/06, 4:30,14.1,69,11.5,-9.9
 2003/12/06, 4:45,14,70,11.4,-9.9
 2003/12/06, 5:00,14,70,11.5,-9.9
 2003/12/06, 5:15,13.9,70,11.4,-9.9
 2003/12/06, 5:30,13.8,70,11.4,-9.9
 2003/12/06, 5:45,13.8,70,11.4,-9.9
 2003/12/06, 6:00,13.8,70,11.4,-9.9
 2003/12/06, 6:15,13.8,70,11.4,-9.9
 2003/12/06, 6:30,13.6,69,11.4,-9.9
 2003/12/06, 6:45,13.6,69.5,11.4,-9.9
 2003/12/06, 7:00,13.7,69,11.4,-9.9
 2003/12/06, 7:15,13.7,70,11.4,-9.9
 2003/12/06, 7:30,13.5,70,11.4,-9.9
 2003/12/06, 7:45,13.6,70,11.4,-9.9
 2003/12/06, 8:00,13.5,70,11.4,-9.9
 2003/12/06, 8:15,13.6,70,11.4,-9.9
 2003/12/06, 8:30,13.6,70,11.5,-9.9
 2003/12/06, 8:45,14.9,73,11.5,-9.9
 2003/12/06, 9:00,15.7,70,11.5,-9.9
 2003/12/06, 9:15,16.1,67.5,11.6,-9.9
 2003/12/06, 9:30,16.4,68,11.6,-9.9
 2003/12/06, 9:45,16.6,66,11.6,-9.9
 2003/12/06,10:00,16.4,63,11.8,-9.9
 2003/12/06,10:15,16.5,65,11.9,-9.9
 2003/12/06,10:30,16.9,67,12,-9.9
 2003/12/06,10:45,16.8,68.5,12.1,-9.9
 2003/12/06,11:00,16.8,66,12.4,-9.9
 2003/12/06,11:15,17,64.5,12.1,-9.9
 2003/12/06,11:30,17.1,64,12.1,-9.9
 2003/12/06,11:45,17,63,12.1,-9.9
 2003/12/06,12:00,17.2,63,12.1,-9.9
 2003/12/06,12:15,18.2,65.5,12.1,-9.9
 2003/12/06,12:30,17.9,67,12.1,-9.9
 2003/12/06,12:45,17.7,66.5,12.2,-9.9
 2003/12/06,13:00,17.7,67,12.2,-9.9
 2003/12/06,13:15,17.6,66,12.3,-9.9
 2003/12/06,13:30,17.8,65,12.4,-9.9
 2003/12/06,13:45,17.5,65.5,12.4,-9.9
 2003/12/06,14:00,17.4,66,12.4,-9.9
 2003/12/06,14:15,17.5,66,12.4,-9.9
 2003/12/06,14:30,17.4,67,12.5,-9.9
 2003/12/06,14:45,17.2,67.5,12.5,-9.9
 2003/12/06,15:00,16.9,68,12.5,-9.9
 2003/12/06,15:15,17.3,67.5,12.6,-9.9
 2003/12/06,15:30,17.7,66,12.5,-9.9
 2003/12/06,15:45,17.9,65.5,12.6,-9.9
 2003/12/06,16:00,18,65,12.6,-9.9
 2003/12/06,16:15,18,65,12.6,-9.9
 2003/12/06,16:30,18.1,65,12.6,-9.9
 2003/12/06,16:45,18.2,65,12.6,-9.9
 2003/12/06,17:00,18.4,64,12.6,-9.9
 2003/12/06,17:15,18.4,64,12.6,-9.9
 2003/12/06,17:30,18.3,63,12.7,-9.9
 2003/12/06,17:45,18.5,63,12.9,-9.9
 2003/12/06,18:00,18.6,63,12.9,-9.9
 2003/12/06,18:15,18.1,61,13.1,-9.9
 2003/12/06,18:30,18,62,13,-9.9
 2003/12/06,18:45,18.5,64,13,-9.9
 2003/12/06,19:00,19.2,66,13.1,-9.9
 2003/12/06,19:15,19.5,66,13,-9.9
 2003/12/06,19:30,19.5,67,13.1,-9.9
 2003/12/06,19:45,19.5,67,13.1,-9.9
 2003/12/06,20:00,18.9,68,13.2,-9.9
 2003/12/06,20:15,18.5,69.5,13.2,-9.9
 2003/12/06,20:30,18.2,70,13.2,-9.9
 2003/12/06,20:45,18,71,13.3,-9.9
 2003/12/06,21:00,17.8,72,13.3,-9.9
 2003/12/06,21:15,17.6,72,13.3,-9.9
 2003/12/06,21:30,17.6,72,13.3,-9.9
 2003/12/06,21:45,17.7,72,13.4,-9.9
 2003/12/06,22:00,17.7,72,13.5,-9.9
 2003/12/06,22:15,17.7,72,13.4,-9.9
 2003/12/06,22:30,17.7,72,13.4,-9.9
 2003/12/06,22:45,17.6,72,13.4,-9.9
 2003/12/06,23:00,17.5,72,13.5,-9.9
 2003/12/06,23:15,17.5,72,13.5,-9.9
 2003/12/06,23:30,17.8,73,13.5,-9.9
 2003/12/06,23:45,17.5,73,13.4,-9.9
 2003/12/07, 0:00,17.4,73,13.3,-9.9
 2003/12/07, 0:15,17.4,72.5,13.4,-9.9
 2003/12/07, 0:30,17.4,71,13.5,-9.9
 2003/12/07, 0:45,17.1,71,13.4,-9.9
 2003/12/07, 1:00,17.1,71,13.4,-9.9
 2003/12/07, 1:15,17.2,69.5,13.4,-9.9
 2003/12/07, 1:30,17.2,69,13.4,-9.9
 2003/12/07, 1:45,17.1,69,13.3,-9.9
 2003/12/07, 2:00,17.1,69,13.3,-9.9
 2003/12/07, 2:15,16.6,68,13.4,-9.9
 2003/12/07, 2:30,16.4,67,13.2,-9.9
 2003/12/07, 2:45,16.5,68.5,13.2,-9.9
 2003/12/07, 3:00,16.5,68,13.2,-9.9
 2003/12/07, 3:15,16.1,65.5,13.1,-9.9
 2003/12/07, 3:30,16,66,13,-9.9
 2003/12/07, 3:45,15.9,66,13,-9.9
 2003/12/07, 4:00,15.8,66,13,-9.9
 2003/12/07, 4:15,15.6,65.5,12.9,-9.9
 2003/12/07, 4:30,15.5,65,12.9,-9.9
 2003/12/07, 4:45,15.4,65,12.8,-9.9
 2003/12/07, 5:00,15.3,65,12.7,-9.9
 2003/12/07, 5:15,15.2,64,12.6,-9.9
 2003/12/07, 5:30,15.1,65,12.6,-9.9
 2003/12/07, 5:45,15.1,65,12.6,-9.9
 2003/12/07, 6:00,14.9,67,12.6,-9.9
 2003/12/07, 6:15,14.9,66,12.6,-9.9
 2003/12/07, 6:30,14.9,66,12.5,-9.9
 2003/12/07, 6:45,14.9,66,12.4,-9.9
 2003/12/07, 7:00,14.8,66,12.4,-9.9
 2003/12/07, 7:15,14.7,66.5,12.4,-9.9
 2003/12/07, 7:30,14.7,66,12.3,-9.9
 2003/12/07, 7:45,14.6,66,12.4,-9.9
 2003/12/07, 8:00,14.6,66,12.4,-9.9
 2003/12/07, 8:15,14.6,65,12.4,-9.9
 2003/12/07, 8:30,14.7,65,12.9,-9.9
 2003/12/07, 8:45,15.2,64.5,13.2,-9.9
 2003/12/07, 9:00,15.5,63,13.3,-9.9
 2003/12/07, 9:15,15.4,62,13.4,-9.9
 2003/12/07, 9:30,15.3,61,13.3,-9.9
 2003/12/07, 9:45,15.3,62,13.3,-9.9
 2003/12/07,10:00,15.4,61,13.3,-9.9
 2003/12/07,10:15,15.4,61.5,13.3,-9.9
 2003/12/07,10:30,15.9,59,13.4,-9.9
 2003/12/07,10:45,17,58.5,13.3,-9.9
 2003/12/07,11:00,17.9,65,13.4,-9.9
 2003/12/07,11:15,17.8,63,13.4,-9.9
 2003/12/07,11:30,17.8,62,13.4,-9.9
 2003/12/07,11:45,18.1,60,13.3,-9.9
 2003/12/07,12:00,17.7,56,13.6,-9.9
 2003/12/07,12:15,17.7,54,13.6,-9.9
 2003/12/07,12:30,18,52,13.4,-9.9
 2003/12/07,12:45,19.4,51,13.4,-9.9
 2003/12/07,13:00,20.1,53,13.2,-9.9
 2003/12/07,13:15,20.6,53,13.2,-9.9
 2003/12/07,13:30,20,53,13.2,-9.9
 2003/12/07,13:45,19.6,55,13.2,-9.9
 2003/12/07,14:00,19.6,56,13.2,-9.9
 2003/12/07,14:15,19.8,56,13.1,-9.9
 2003/12/07,14:30,20.3,56,13.1,-9.9
 2003/12/07,14:45,21.4,55.5,13.1,-9.9
 2003/12/07,15:00,20.8,57,13,-9.9
 2003/12/07,15:15,21.1,56,12.9,-9.9
 2003/12/07,15:30,21.5,53,12.9,-9.9
 2003/12/07,15:45,20.5,56.5,12.8,-9.9
 2003/12/07,16:00,19.7,56,12.8,-9.9
 2003/12/07,16:15,18.8,58,12.6,-9.9
 2003/12/07,16:30,18.1,58,12.6,-9.9
 2003/12/07,16:45,17.9,58,12.6,-9.9
 2003/12/07,17:00,17.1,55,12.6,-9.9
 2003/12/07,17:15,17,55.5,12.3,-9.9